Location: ?????
(31.8092°N, 35.2590°E)
Time: 17:26:11
(UTC+00:00)

N. Korean satellite - Pass Details

Date: 25 September 2021
Orbit: 450 x 495 km, 97.3° (Epoch: 15 October)

Event Time Altitude Azimuth Distance (km) Brightness Sun altitude
Rises 02:00:43 0° 32° (NNE) 2,532 10.9 -19.5°
Reaches altitude 10° 02:03:20 10° 54° (NE) 1,658 10.2 -18.9°
Maximum altitude 02:05:42 17° 96° (E) 1,297 9.7 -18.4°
Drops below altitude 10° 02:08:05 10° 137° (SE) 1,667 9.7 -17.9°
Sets 02:10:43 0° 159° (SSE) 2,550 10.4 -17.4°
